Location: Tamazert
(32.6352°N, 5.2072°W)
Time: 17:45:19
(UTC+00:00)

CZ-2C R/B - Pass Details

Date: 22 May 2022
Orbit: 785 x 869 km, 98.2° (Epoch: 06 July)

Event Time Altitude Azimuth Distance (km) Brightness Sun altitude
Rises 04:37:34 0° 153° (SSE) 3,260 5.7 -8.4°
Reaches altitude 10° 04:39:55 10° 148° (SSE) 2,335 5.0 -7.9°
Maximum altitude 04:44:53 51° 74° (ENE) 987 3.6 -7.0°
Drops below altitude 10° 04:49:54 10° 359° (N) 2,366 5.4 -6.1°
Sets 04:52:18 0° 355° (N) 3,308 6.1 -5.7°
